Terminal Aerodrome Forecast
Issued by NWS

Home | Current Version | Previous Version | Graphics & Text | Print | Product List | Glossary On
Versions: 1 2 3 4 5 6 7 8 9 10 11 12 13 14 15 16 17 18 19 20 21 22 23 24 25 26 27 28 29 30 31 32 33 34 35 36 37 38 39 40 41 42 43 44 45 46 47 48 49 50
000
FTUS43 KLOT 202300
TAFGYY
TAF
KGYY 202340Z 2100/2124 25009KT P6SM FEW050 SCT100
     FM210500 27012G17KT P6SM VCSH SCT030 BKN060
     FM210800 29014G20KT P6SM SCT030 BKN050
     FM211200 31014G21KT P6SM BKN020
     FM211700 34013G22KT P6SM VCSH BKN030
     FM212100 36012G20KT P6SM SCT035=

USA.gov is the U.S. government's official web portal to all federal, state and local government web resources and services.